Time,TemperatureF,DewpointF,PressureIn,WindDirection,WindDirectionDegrees,WindSpeedMPH,WindSpeedGustMPH,Humidity,HourlyPrecipIn,Conditions,Clouds,dailyrainin,SoftwareType,DateUTC
2013-07-03 00:01:00,61.0,60.0,30.01,NNE,28,0.0,4.0,95,0.00,,,0.04,,2013-07-03 05:01:00,
2013-07-03 00:11:00,61.0,60.0,30.01,NNE,28,0.0,4.0,95,0.00,,,0.04,,2013-07-03 05:11:00,
2013-07-03 00:23:00,62.0,61.0,30.01,NNE,24,1.0,4.0,95,0.00,,,0.04,,2013-07-03 05:23:00,
2013-07-03 00:37:00,62.0,61.0,30.01,NNE,30,0.0,4.0,95,0.00,,,0.04,,2013-07-03 05:37:00,
2013-07-03 01:00:00,62.0,61.0,30.01,NNE,29,1.0,4.0,95,0.00,,,0.04,,2013-07-03 06:00:00,
2013-07-03 01:06:00,62.0,61.0,30.01,NNE,28,0.0,2.0,95,0.00,,,0.04,,2013-07-03 06:06:00,
2013-07-03 01:13:00,62.0,61.0,30.01,NNE,28,0.0,2.0,95,0.00,,,0.04,,2013-07-03 06:13:00,
2013-07-03 01:24:00,61.0,60.0,30.00,NNE,28,0.0,2.0,95,0.00,,,0.04,,2013-07-03 06:24:00,
2013-07-03 01:38:00,61.0,60.0,30.00,NNE,28,1.0,3.0,96,0.00,,,0.04,,2013-07-03 06:38:00,
2013-07-03 01:48:00,61.0,60.0,30.00,NNE,28,1.0,3.0,96,0.00,,,0.04,,2013-07-03 06:48:00,
2013-07-03 01:58:00,61.0,60.0,29.99,NNE,27,1.0,3.0,96,0.00,,,0.04,,2013-07-03 06:58:00,
2013-07-03 02:04:00,61.0,60.0,29.99,NNE,27,1.0,3.0,96,0.00,,,0.04,,2013-07-03 07:04:00,
2013-07-03 02:15:00,61.0,60.0,29.99,NNE,26,0.0,3.0,96,0.00,,,0.04,,2013-07-03 07:15:00,
2013-07-03 02:26:00,61.0,60.0,29.99,NNE,26,1.0,3.0,96,0.00,,,0.04,,2013-07-03 07:26:00,
2013-07-03 02:47:00,61.0,60.0,29.98,NNE,28,1.0,4.0,96,0.00,,,0.04,,2013-07-03 07:47:00,
2013-07-03 03:08:00,62.0,61.0,29.99,NNE,12,0.0,2.0,96,0.00,,,0.04,,2013-07-03 08:08:00,
2013-07-03 03:16:00,62.0,61.0,29.99,NNE,12,0.0,2.0,96,0.00,,,0.04,,2013-07-03 08:16:00,
2013-07-03 03:25:00,62.0,61.0,29.99,NNE,12,0.0,1.0,97,0.00,,,0.04,,2013-07-03 08:25:00,
2013-07-03 03:36:00,62.0,61.0,29.99,NNE,13,0.0,3.0,97,0.00,,,0.04,,2013-07-03 08:36:00,
2013-07-03 03:45:00,62.0,61.0,29.99,NNE,13,0.0,3.0,97,0.00,,,0.04,,2013-07-03 08:45:00,
2013-07-03 03:55:00,62.0,61.0,29.99,NNE,13,0.0,2.0,97,0.00,,,0.04,,2013-07-03 08:55:00,
2013-07-03 04:05:00,62.0,61.0,29.99,NNE,13,0.0,1.0,97,0.00,,,0.04,,2013-07-03 09:05:00,
2013-07-03 04:16:00,62.0,61.0,29.99,NNE,13,0.0,1.0,97,0.00,,,0.04,,2013-07-03 09:16:00,
2013-07-03 04:24:00,62.0,61.0,29.99,NNE,13,0.0,1.0,97,0.00,,,0.04,,2013-07-03 09:24:00,
2013-07-03 04:37:00,62.0,61.0,29.99,NNE,13,0.0,1.0,97,0.00,,,0.04,,2013-07-03 09:37:00,
2013-07-03 04:46:00,62.0,61.0,29.99,NNE,13,0.0,1.0,97,0.00,,,0.04,,2013-07-03 09:46:00,
2013-07-03 04:55:00,62.0,61.0,29.99,NNE,13,0.0,0.0,97,0.00,,,0.04,,2013-07-03 09:55:00,
2013-07-03 05:05:00,62.0,61.0,29.99,NNE,13,0.0,0.0,97,0.00,,,0.04,,2013-07-03 10:05:00,
2013-07-03 05:15:00,62.0,61.0,29.99,NNE,13,0.0,0.0,97,0.00,,,0.04,,2013-07-03 10:15:00,
2013-07-03 05:27:00,62.0,61.0,30.00,NNE,13,0.0,1.0,97,0.00,,,0.04,,2013-07-03 10:27:00,
2013-07-03 05:36:00,62.0,61.0,30.00,NNE,13,0.0,1.0,97,0.00,,,0.04,,2013-07-03 10:36:00,
2013-07-03 05:45:00,62.0,61.0,30.00,NNE,13,0.0,1.0,97,0.00,,,0.04,,2013-07-03 10:45:00,
2013-07-03 05:55:00,62.0,61.0,30.00,NNE,13,0.0,2.0,97,0.00,,,0.04,,2013-07-03 10:55:00,
2013-07-03 06:06:00,62.0,61.0,30.01,NNE,13,0.0,1.0,97,0.00,,,0.04,,2013-07-03 11:06:00,
2013-07-03 06:16:00,62.0,61.0,30.01,NNE,13,0.0,1.0,97,0.00,,,0.04,,2013-07-03 11:16:00,
2013-07-03 06:25:00,62.0,61.0,30.01,NNE,13,0.0,1.0,97,0.00,,,0.04,,2013-07-03 11:25:00,
2013-07-03 06:38:00,62.0,61.0,30.01,NNE,13,0.0,2.0,97,0.00,,,0.04,,2013-07-03 11:38:00,
2013-07-03 06:53:00,62.0,61.0,30.01,NNE,13,0.0,2.0,97,0.00,,,0.04,,2013-07-03 11:53:00,
2013-07-03 07:08:00,62.0,61.0,30.02,NNE,15,0.0,1.0,97,0.00,,,0.04,,2013-07-03 12:08:00,
2013-07-03 07:16:00,62.0,61.0,30.02,NNE,15,0.0,1.0,97,0.00,,,0.04,,2013-07-03 12:16:00,
2013-07-03 07:37:00,62.0,61.0,30.02,NNE,15,0.0,0.0,97,0.00,,,0.04,,2013-07-03 12:37:00,
2013-07-03 07:43:00,63.0,62.0,30.02,NNE,15,0.0,0.0,97,0.00,,,0.04,,2013-07-03 12:43:00,
2013-07-03 07:56:00,63.0,62.0,30.02,SE,137,0.0,2.0,97,0.00,,,0.04,,2013-07-03 12:56:00,
2013-07-03 08:06:00,63.0,62.0,30.02,SE,137,0.0,2.0,97,0.00,,,0.04,,2013-07-03 13:06:00,
2013-07-03 08:16:00,63.0,62.0,30.03,SE,137,0.0,1.0,97,0.00,,,0.04,,2013-07-03 13:16:00,
2013-07-03 08:24:00,64.0,63.0,30.03,SE,137,0.0,1.0,97,0.00,,,0.04,,2013-07-03 13:24:00,
2013-07-03 08:35:00,64.0,63.0,30.03,SE,137,0.0,1.0,97,0.00,,,0.04,,2013-07-03 13:35:00,
2013-07-03 08:47:00,65.0,64.0,30.03,WSW,252,0.0,3.0,97,0.00,,,0.04,,2013-07-03 13:47:00,
2013-07-03 08:54:00,65.0,63.0,30.03,NNW,329,0.0,3.0,93,0.00,,,0.04,,2013-07-03 13:54:00,
2013-07-03 09:06:00,65.0,63.0,30.03,NNW,329,0.0,3.0,93,0.00,,,0.04,,2013-07-03 14:06:00,
2013-07-03 09:15:00,66.0,63.0,30.03,SW,214,1.0,4.0,91,0.00,,,0.04,,2013-07-03 14:15:00,
2013-07-03 09:26:00,66.0,63.0,30.04,WSW,254,1.0,3.0,90,0.00,,,0.01,,2013-07-03 14:26:00,
2013-07-03 09:46:00,67.0,64.0,30.03,SSW,200,1.0,5.0,89,0.00,,,0.01,,2013-07-03 14:46:00,
2013-07-03 09:54:00,68.0,64.0,30.03,SSW,194,2.0,7.0,86,0.00,,,0.01,,2013-07-03 14:54:00,
2013-07-03 10:05:00,68.0,64.0,30.03,SSW,194,2.0,7.0,86,0.00,,,0.01,,2013-07-03 15:05:00,
2013-07-03 10:14:00,69.0,64.0,30.03,SSW,201,1.0,7.0,84,0.00,,,0.01,,2013-07-03 15:14:00,
2013-07-03 10:26:00,71.0,66.0,30.03,SW,221,1.0,6.0,84,0.00,,,0.00,,2013-07-03 15:26:00,
2013-07-03 10:37:00,71.0,66.0,30.03,SW,221,1.0,6.0,84,0.00,,,0.00,,2013-07-03 15:37:00,
2013-07-03 10:47:00,70.0,65.0,30.03,SW,232,1.0,5.0,84,0.00,,,0.00,,2013-07-03 15:47:00,
2013-07-03 10:55:00,70.0,65.0,30.03,West,273,1.0,4.0,84,0.00,,,0.00,,2013-07-03 15:55:00,
2013-07-03 11:06:00,70.0,65.0,30.03,West,273,1.0,4.0,84,0.00,,,0.00,,2013-07-03 16:06:00,
2013-07-03 11:16:00,70.0,65.0,30.03,SW,230,0.0,5.0,83,0.00,,,0.00,,2013-07-03 16:16:00,
2013-07-03 11:23:00,70.0,65.0,30.03,SW,230,0.0,5.0,83,0.00,,,0.00,,2013-07-03 16:23:00,
2013-07-03 11:37:00,70.0,65.0,30.03,SW,230,0.0,5.0,83,0.00,,,0.00,,2013-07-03 16:37:00,
2013-07-03 11:46:00,69.0,65.0,30.04,SW,224,2.0,7.0,86,0.00,,,0.00,,2013-07-03 16:46:00,
2013-07-03 11:55:00,70.0,65.0,30.04,SW,216,4.0,8.0,84,0.00,,,0.00,,2013-07-03 16:55:00,
2013-07-03 12:07:00,70.0,65.0,30.04,SW,216,4.0,8.0,84,0.00,,,0.00,,2013-07-03 17:07:00,
2013-07-03 12:16:00,69.0,64.0,30.04,SW,223,1.0,5.0,85,0.00,,,0.00,,2013-07-03 17:16:00,
2013-07-03 12:24:00,69.0,65.0,30.04,SW,223,2.0,6.0,86,0.00,,,0.00,,2013-07-03 17:24:00,
2013-07-03 12:40:00,69.0,65.0,30.04,SW,223,2.0,6.0,86,0.00,,,0.00,,2013-07-03 17:40:00,
2013-07-03 12:46:00,69.0,64.0,30.04,WSW,237,1.0,6.0,85,0.00,,,0.00,,2013-07-03 17:46:00,
2013-07-03 12:53:00,69.0,64.0,30.04,WNW,290,1.0,5.0,83,0.00,,,0.00,,2013-07-03 17:53:00,
2013-07-03 13:07:00,69.0,64.0,30.04,WNW,290,1.0,5.0,83,0.00,,,0.00,,2013-07-03 18:07:00,
2013-07-03 13:15:00,69.0,64.0,30.04,West,265,1.0,6.0,83,0.00,,,0.00,,2013-07-03 18:15:00,
2013-07-03 13:25:00,70.0,65.0,30.05,SSW,192,2.0,6.0,83,0.00,,,0.00,,2013-07-03 18:25:00,
2013-07-03 13:36:00,70.0,65.0,30.05,SSW,192,2.0,6.0,83,0.00,,,0.00,,2013-07-03 18:36:00,
2013-07-03 13:56:00,70.0,65.0,30.04,SSW,207,1.0,4.0,83,0.00,,,0.00,,2013-07-03 18:56:00,
2013-07-03 14:04:00,70.0,65.0,30.04,SSW,207,1.0,4.0,83,0.00,,,0.00,,2013-07-03 19:04:00,
2013-07-03 14:15:00,69.0,63.0,30.04,SW,218,1.0,6.0,82,0.00,,,0.00,,2013-07-03 19:15:00,
2013-07-03 14:29:00,70.0,64.0,30.04,SW,224,1.0,4.0,82,0.00,,,0.00,,2013-07-03 19:29:00,
2013-07-03 14:46:00,70.0,63.0,30.04,SE,146,1.0,6.0,79,0.00,,,0.00,,2013-07-03 19:46:00,
2013-07-03 14:55:00,70.0,64.0,30.04,SSW,207,4.0,7.0,80,0.00,,,0.00,,2013-07-03 19:55:00,
2013-07-03 15:03:00,70.0,64.0,30.04,SSW,207,4.0,7.0,80,0.00,,,0.00,,2013-07-03 20:03:00,
2013-07-03 15:14:00,69.0,63.0,30.04,South,185,3.0,7.0,80,0.00,,,0.00,,2013-07-03 20:14:00,
2013-07-03 15:24:00,69.0,63.0,30.04,South,180,1.0,5.0,81,0.00,,,0.00,,2013-07-03 20:24:00,
2013-07-03 15:36:00,69.0,63.0,30.04,South,180,1.0,5.0,81,0.00,,,0.00,,2013-07-03 20:36:00,
2013-07-03 15:44:00,69.0,64.0,30.04,West,279,0.0,7.0,83,0.00,,,0.00,,2013-07-03 20:44:00,
2013-07-03 16:06:00,69.0,63.0,30.04,West,265,2.0,5.0,81,0.00,,,0.00,,2013-07-03 21:06:00,
2013-07-03 16:13:00,69.0,63.0,30.04,SW,232,0.0,4.0,82,0.00,,,0.00,,2013-07-03 21:13:00,
2013-07-03 16:25:00,71.0,65.0,30.04,South,189,2.0,7.0,80,0.00,,,0.00,,2013-07-03 21:25:00,
2013-07-03 16:35:00,71.0,65.0,30.04,South,189,2.0,7.0,80,0.00,,,0.00,,2013-07-03 21:35:00,
2013-07-03 16:44:00,72.0,65.0,30.04,SSW,211,0.0,4.0,79,0.00,,,0.00,,2013-07-03 21:44:00,
2013-07-03 16:53:00,72.0,65.0,30.04,WNW,299,0.0,7.0,80,0.00,,,0.00,,2013-07-03 21:53:00,
2013-07-03 17:14:00,71.0,64.0,30.04,SSW,198,2.0,6.0,79,0.00,,,0.00,,2013-07-03 22:14:00,
2013-07-03 17:26:00,71.0,65.0,30.03,South,171,1.0,7.0,80,0.00,,,0.00,,2013-07-03 22:26:00,
2013-07-03 17:37:00,71.0,65.0,30.03,South,171,1.0,7.0,80,0.00,,,0.00,,2013-07-03 22:37:00,
2013-07-03 17:45:00,72.0,64.0,30.03,WNW,283,1.0,5.0,76,0.00,,,0.00,,2013-07-03 22:45:00,
2013-07-03 17:54:00,71.0,64.0,30.03,WNW,301,0.0,8.0,78,0.00,,,0.00,,2013-07-03 22:54:00,
2013-07-03 18:04:00,71.0,64.0,30.03,WNW,301,0.0,8.0,78,0.00,,,0.00,,2013-07-03 23:04:00,
2013-07-03 18:14:00,71.0,64.0,30.03,SE,146,0.0,5.0,79,0.00,,,0.00,,2013-07-03 23:14:00,
2013-07-03 18:24:00,70.0,63.0,30.03,North,5,0.0,4.0,78,0.00,,,0.00,,2013-07-03 23:24:00,
2013-07-03 18:39:00,70.0,63.0,30.03,North,5,0.0,4.0,78,0.00,,,0.00,,2013-07-03 23:39:00,
2013-07-03 18:53:00,72.0,63.0,30.03,SSW,197,2.0,5.0,74,0.00,,,0.00,,2013-07-03 23:53:00,
2013-07-03 19:15:00,72.0,63.0,30.02,SSW,211,1.0,4.0,74,0.00,,,0.00,,2013-07-04 00:15:00,
2013-07-03 19:36:00,72.0,63.0,30.03,SW,225,0.0,6.0,74,0.00,,,0.00,,2013-07-04 00:36:00,
2013-07-03 19:47:00,71.0,63.0,30.03,SSW,213,0.0,5.0,75,0.00,,,0.00,,2013-07-04 00:47:00,
2013-07-03 19:55:00,70.0,62.0,30.03,WSW,239,0.0,3.0,77,0.00,,,0.00,,2013-07-04 00:55:00,
2013-07-03 20:03:00,70.0,62.0,30.03,WSW,239,0.0,3.0,77,0.00,,,0.00,,2013-07-04 01:03:00,
2013-07-03 20:15:00,70.0,63.0,30.03,WSW,239,0.0,1.0,78,0.00,,,0.00,,2013-07-04 01:15:00,
2013-07-03 20:23:00,69.0,62.0,30.03,WSW,239,0.0,0.0,79,0.00,,,0.00,,2013-07-04 01:23:00,
2013-07-03 20:37:00,69.0,62.0,30.03,WSW,239,0.0,0.0,79,0.00,,,0.00,,2013-07-04 01:37:00,
2013-07-03 20:43:00,68.0,62.0,30.04,WSW,239,0.0,0.0,81,0.00,,,0.00,,2013-07-04 01:43:00,
2013-07-03 20:53:00,67.0,62.0,30.03,WSW,239,0.0,0.0,83,0.00,,,0.00,,2013-07-04 01:53:00,
2013-07-03 21:06:00,67.0,62.0,30.03,WSW,239,0.0,0.0,83,0.00,,,0.00,,2013-07-04 02:06:00,
2013-07-03 21:14:00,66.0,62.0,30.03,WSW,239,0.0,1.0,87,0.00,,,0.00,,2013-07-04 02:14:00,
2013-07-03 21:38:00,66.0,62.0,30.04,WSW,239,0.0,0.0,88,0.00,,,0.00,,2013-07-04 02:38:00,
2013-07-03 21:47:00,64.0,61.0,30.05,WSW,239,0.0,0.0,89,0.00,,,0.00,,2013-07-04 02:47:00,
2013-07-03 21:55:00,64.0,61.0,30.05,WSW,239,0.0,0.0,91,0.00,,,0.00,,2013-07-04 02:55:00,
2013-07-03 22:14:00,64.0,62.0,30.06,WSW,239,0.0,1.0,92,0.00,,,0.00,,2013-07-04 03:14:00,
2013-07-03 22:26:00,64.0,62.0,30.06,WSW,239,0.0,0.0,92,0.00,,,0.00,,2013-07-04 03:26:00,
2013-07-03 22:35:00,64.0,62.0,30.06,WSW,239,0.0,0.0,92,0.00,,,0.00,,2013-07-04 03:35:00,
2013-07-03 22:46:00,63.0,61.0,30.06,WSW,239,0.0,0.0,92,0.00,,,0.00,,2013-07-04 03:46:00,
2013-07-03 22:56:00,62.0,60.0,30.06,WSW,239,0.0,0.0,92,0.00,,,0.00,,2013-07-04 03:56:00,
2013-07-03 23:02:00,62.0,60.0,30.06,WSW,239,0.0,0.0,92,0.00,,,0.00,,2013-07-04 04:02:00,
2013-07-03 23:11:00,62.0,60.0,30.06,WSW,239,0.0,0.0,94,0.00,,,0.00,,2013-07-04 04:11:00,
2013-07-03 23:22:00,62.0,60.0,30.07,WSW,239,0.0,1.0,93,0.00,,,0.00,,2013-07-04 04:22:00,
2013-07-03 23:33:00,62.0,60.0,30.07,WSW,239,0.0,1.0,93,0.00,,,0.00,,2013-07-04 04:33:00,
2013-07-03 23:43:00,62.0,60.0,30.06,WSW,239,0.0,0.0,93,0.00,,,0.00,,2013-07-04 04:43:00,
2013-07-03 23:52:00,62.0,60.0,30.07,WSW,239,0.0,1.0,93,0.00,,,0.00,,2013-07-04 04:52:00,